TimeEDT,TemperatureF,Dew PointF,Humidity,Sea Level PressureIn,VisibilityMPH,Wind Direction,Wind SpeedMPH,Gust SpeedMPH,PrecipitationIn,Events,Conditions,WindDirDegrees,DateUTC
12:52 AM,46.9,32.0,56,30.22,10.0,NNW,10.4,-,N/A,,Clear,330,2013-04-21 04:52:00
1:52 AM,46.0,27.0,47,30.25,10.0,NNW,9.2,17.3,N/A,,Scattered Clouds,330,2013-04-21 05:52:00
2:52 AM,44.1,25.0,47,30.27,10.0,NNW,8.1,-,N/A,,Scattered Clouds,330,2013-04-21 06:52:00
3:52 AM,42.1,26.1,53,30.31,10.0,Variable,6.9,-,N/A,,Clear,0,2013-04-21 07:52:00
4:52 AM,39.9,21.9,49,30.35,10.0,NW,10.4,17.3,N/A,,Clear,320,2013-04-21 08:52:00
5:52 AM,39.0,23.0,53,30.38,10.0,NNW,6.9,-,N/A,,Clear,330,2013-04-21 09:52:00
6:52 AM,41.0,23.0,49,30.43,10.0,Variable,6.9,-,N/A,,Clear,0,2013-04-21 10:52:00
7:52 AM,43.0,21.9,43,30.46,10.0,Variable,6.9,-,N/A,,Clear,0,2013-04-21 11:52:00
8:52 AM,43.0,24.1,47,30.48,10.0,North,8.1,18.4,N/A,,Clear,360,2013-04-21 12:52:00
10:52 AM,44.1,24.1,45,30.52,10.0,North,10.4,20.7,N/A,,Clear,350,2013-04-21 14:52:00
11:52 AM,45.0,25.0,46,30.53,9.0,NNW,9.2,19.6,N/A,,Clear,330,2013-04-21 15:52:00
12:52 PM,46.9,26.1,44,30.55,10.0,North,8.1,-,N/A,,Clear,350,2013-04-21 16:52:00
1:52 PM,46.0,26.1,46,30.56,10.0,NNE,8.1,19.6,N/A,,Partly Cloudy,30,2013-04-21 17:52:00
2:52 PM,45.0,26.1,48,30.57,10.0,NE,10.4,19.6,N/A,,Clear,50,2013-04-21 18:52:00
3:52 PM,45.0,26.1,48,30.57,10.0,NE,11.5,19.6,N/A,,Clear,50,2013-04-21 19:52:00
4:52 PM,44.1,24.1,45,30.59,10.0,ENE,9.2,-,N/A,,Clear,60,2013-04-21 20:52:00
5:52 PM,44.1,24.1,45,30.60,10.0,ENE,10.4,-,N/A,,Clear,60,2013-04-21 21:52:00
6:52 PM,43.0,25.0,49,30.61,10.0,ENE,8.1,-,N/A,,Clear,60,2013-04-21 22:52:00
7:52 PM,41.0,26.1,55,30.64,10.0,ENE,5.8,-,N/A,,Clear,60,2013-04-21 23:52:00
8:52 PM,41.0,26.1,55,30.66,10.0,ENE,4.6,-,N/A,,Clear,70,2013-04-22 00:52:00
9:52 PM,39.9,27.0,60,30.67,10.0,ENE,3.5,-,N/A,,Clear,70,2013-04-22 01:52:00
10:52 PM,41.0,27.0,57,30.67,10.0,ENE,4.6,-,N/A,,Clear,70,2013-04-22 02:52:00
11:52 PM,41.0,28.0,60,30.68,10.0,NE,4.6,-,N/A,,Clear,40,2013-04-22 03:52:00